CZ-3B R/B, 62486

Orbit data source: Space-Track

CZ-3B R/B, 62486 is space debris in HEO originally from a launch on Mon, 06 Jan 2025 UTC launched from the Xichang Space Center, China (XSC). Debris objects in space refer to the collection of defunct objects orbiting the Earth. Examples of debris include non-operational satellites, rocket bodies, and fragments generated from explosions, collisions, or faulty payload assembly.

Loading next visibility...
CZ-3B R/B details
Identifier
62486, 2025-002B
Orbit
HEO
Last TLE update1 day ago
Origin
Flag of CNCASC (CN / PRC)
ManufacturerCALT
MissionSpacecraft
Bus & MotorCZ-3A STAGE 3, Unknown motor
Mass~2,800 kg wet, ~2,800 kg dry
Launch date (UTC)
2025-01-06 (1 month ago)
Launch vehicleUnknown
Launch site
Xichang Space Center, China (XSC)
Object type
Payload
Rocket body
Debris
Shape & HBRUnknown
Radar Cross SectionLarge (>1 m²)

Expand to show TLE details & history

TLE from 1 day ago
0 CZ-3B R/B
1 62486U 25002B   25034.78996571  .00041406  98827-6  76024-3 0  9998
2 62486  28.5690  33.8249 7350818 195.9190 114.1308  2.24149856   631
Epoch: 2025-02-03T18:57Z
Definitive object data (Epoch: 2025-02-03T18:57:33.037Z)
Latitude-0.00016°
Longitude-24.77545°
Altitude32,299.425 km
Speed2.109 km/s
True Right ascension02h 15m 16s
True Declination0° 00' 01"
Sunlit
Object was in daylight at TLE epoch
Visualization TLE readout
Latitude11.61166°
Longitude-3.13795°
Altitude35,220.742 km
Speed1.731 km/s
Apparent Right ascension03h 15m 25s
Apparent Declination6° 16' 37"
Sunlit
Object is in daylight
Visualization observer readout
Local Sidereal Time08:06:50
Azimuth263.741° W
Elevation17.152°
Doppler factor1
Orbital elements
Apogee altitude36,420.445 km
Perigee altitude156.496 km
Semi-major axis24,666.608 km
Eccentricity0.7350818
Inclination28.569°
RAAN33.8249°
Arg. of periapsis195.919°
True anomaly164.14382°
Mean anomaly114.1308°
Eccentric anomaly140.76816°
Mean motion0.56025 °/min
BSTAR0.00076024
Orbital period642.57 mins
Loading maneuver chart data...
Loading historical data...
Loading historical data...
Loading historical data...
Loading historical data...
Loading historical data...
Loading historical data...
Loading historical data...
Other satellites on launch #2 in the year 2025 (2025-01-06 UTC)

CZ-3B R/B Visibility forecast

Observer location: undefined°, undefined

Span
Click to sort rows by Start time (UTC) header in descending order
Start Az.
Max El. time (UTC)
Max El. Az.
Max El.
End time (UTC)
End Az.
247 mins2025-02-05 06:04:44.015Z263.725° W2025-02-05 10:04:44.015Z237.212° WSW25.914°2025-02-05 10:11:44.015Z187.061° SSW
487 mins2025-02-05 21:57:44.015Z186.897° SSW2025-02-06 02:16:44.015Z211.83° SW36.651°2025-02-06 06:04:44.015Z254.38° W
|